Time,TemperatureF,DewpointF,PressureIn,WindDirection,WindDirectionDegrees,WindSpeedMPH,WindSpeedGustMPH,Humidity,HourlyPrecipIn,Conditions,Clouds,dailyrainin,SoftwareType,DateUTC
2013-02-27 00:00:00,32.6,31.3,29.66,ENE,59,2.0,13.0,95,0.12,,---,0.37,VWS V14.00,2013-02-27 05:00:00,
2013-02-27 00:03:00,32.6,31.3,29.66,East,101,6.0,13.0,95,0.08,,---,0.00,VWS V14.00,2013-02-27 05:03:00,
2013-02-27 00:08:00,32.6,31.3,29.65,ENE,57,5.0,13.0,95,0.09,,---,0.01,VWS V14.00,2013-02-27 05:08:00,
2013-02-27 00:13:00,32.6,31.3,29.65,East,91,6.0,13.0,95,0.10,,---,0.02,VWS V14.00,2013-02-27 05:13:00,
2013-02-27 00:18:00,32.6,31.3,29.65,ENE,57,3.0,13.0,95,0.11,,---,0.03,VWS V14.00,2013-02-27 05:18:00,
2013-02-27 00:23:00,32.6,31.3,29.64,NE,48,4.0,13.0,95,0.12,,---,0.04,VWS V14.00,2013-02-27 05:23:00,
2013-02-27 00:28:00,32.6,31.3,29.64,ESE,107,5.0,5.0,95,0.09,,---,0.04,VWS V14.00,2013-02-27 05:28:00,
2013-02-27 00:30:00,32.6,31.3,29.64,NE,46,5.0,13.0,95,0.12,,---,0.04,VWS V14.00,2013-02-27 05:30:00,
2013-02-27 00:33:00,32.6,31.3,29.64,ENE,77,3.0,8.0,95,0.10,,---,0.05,VWS V14.00,2013-02-27 05:33:00,
2013-02-27 00:38:00,32.6,31.3,29.64,East,94,6.0,8.0,95,0.11,,---,0.06,VWS V14.00,2013-02-27 05:38:00,
2013-02-27 00:43:00,32.6,31.3,29.63,ENE,78,4.0,9.0,95,0.12,,---,0.07,VWS V14.00,2013-02-27 05:43:00,
2013-02-27 00:48:00,32.6,31.3,29.63,East,91,7.0,9.0,95,0.12,,---,0.07,VWS V14.00,2013-02-27 05:48:00,
2013-02-27 00:53:00,32.6,31.3,29.63,ENE,64,2.0,9.0,95,0.13,,---,0.08,VWS V14.00,2013-02-27 05:53:00,
2013-02-27 00:58:00,32.6,31.3,29.63,NE,55,3.0,4.0,95,0.08,,---,0.08,VWS V14.00,2013-02-27 05:58:00,
2013-02-27 01:00:00,32.6,31.3,29.63,ENE,74,4.0,9.0,95,0.13,,---,0.08,VWS V14.00,2013-02-27 06:00:00,
2013-02-27 01:03:00,32.7,31.4,29.63,ENE,57,3.0,7.0,95,0.08,,---,0.08,VWS V14.00,2013-02-27 06:03:00,
2013-02-27 01:08:00,32.7,31.4,29.63,NE,44,6.0,7.0,95,0.08,,---,0.08,VWS V14.00,2013-02-27 06:08:00,
2013-02-27 01:13:00,32.8,31.5,29.62,NE,37,2.0,7.0,95,0.08,,---,0.08,VWS V14.00,2013-02-27 06:13:00,
2013-02-27 01:18:00,32.8,31.5,29.62,ESE,113,2.0,7.0,95,0.09,,---,0.09,VWS V14.00,2013-02-27 06:18:00,
2013-02-27 01:23:00,32.8,31.5,29.62,ENE,71,2.0,7.0,95,0.09,,---,0.09,VWS V14.00,2013-02-27 06:23:00,
2013-02-27 01:28:00,32.8,31.5,29.62,ESE,117,5.0,6.0,95,0.05,,---,0.09,VWS V14.00,2013-02-27 06:28:00,
2013-02-27 01:30:00,32.8,31.5,29.62,ENE,57,3.0,7.0,95,0.09,,---,0.09,VWS V14.00,2013-02-27 06:30:00,
2013-02-27 01:33:00,32.8,31.5,29.62,NNW,340,3.0,8.0,95,0.05,,---,0.09,VWS V14.00,2013-02-27 06:33:00,
2013-02-27 01:38:00,32.8,31.5,29.62,NE,44,5.0,8.0,95,0.05,,---,0.09,VWS V14.00,2013-02-27 06:38:00,
2013-02-27 01:43:00,32.8,31.5,29.62,ENE,58,3.0,8.0,95,0.05,,---,0.09,VWS V14.00,2013-02-27 06:43:00,
2013-02-27 01:48:00,32.9,31.6,29.62,NE,49,2.0,8.0,95,0.05,,---,0.09,VWS V14.00,2013-02-27 06:48:00,
2013-02-27 01:53:00,32.9,31.6,29.62,NE,36,4.0,8.0,95,0.06,,---,0.10,VWS V14.00,2013-02-27 06:53:00,
2013-02-27 01:58:00,32.9,31.6,29.61,East,86,5.0,9.0,95,0.02,,---,0.10,VWS V14.00,2013-02-27 06:58:00,
2013-02-27 02:00:00,32.9,31.6,29.61,North,9,5.0,9.0,95,0.06,,---,0.10,VWS V14.00,2013-02-27 07:00:00,
2013-02-27 02:03:00,32.8,31.5,29.61,ESE,120,2.0,10.0,95,0.02,,---,0.10,VWS V14.00,2013-02-27 07:03:00,
2013-02-27 02:08:00,32.8,31.5,29.61,East,80,2.0,10.0,95,0.02,,---,0.10,VWS V14.00,2013-02-27 07:08:00,
2013-02-27 02:13:00,32.8,31.5,29.61,NE,38,4.0,10.0,95,0.03,,---,0.11,VWS V14.00,2013-02-27 07:13:00,
2013-02-27 02:18:00,32.8,31.5,29.61,NE,54,2.0,10.0,95,0.03,,---,0.11,VWS V14.00,2013-02-27 07:18:00,
2013-02-27 02:23:00,32.8,31.5,29.61,NE,43,0.0,10.0,95,0.03,,---,0.11,VWS V14.00,2013-02-27 07:23:00,
2013-02-27 02:28:00,32.8,31.5,29.61,NE,53,3.0,6.0,95,0.02,,---,0.11,VWS V14.00,2013-02-27 07:28:00,
2013-02-27 02:30:00,32.8,31.5,29.61,East,85,3.0,10.0,95,0.03,,---,0.11,VWS V14.00,2013-02-27 07:30:00,
2013-02-27 02:33:00,32.9,31.6,29.61,North,355,3.0,8.0,95,0.02,,---,0.11,VWS V14.00,2013-02-27 07:33:00,
2013-02-27 02:38:00,32.9,31.6,29.61,East,89,3.0,8.0,95,0.02,,---,0.11,VWS V14.00,2013-02-27 07:38:00,
2013-02-27 02:43:00,32.9,31.6,29.60,ENE,71,2.0,8.0,95,0.03,,---,0.12,VWS V14.00,2013-02-27 07:43:00,
2013-02-27 02:48:00,32.9,31.6,29.60,NE,53,3.0,8.0,95,0.03,,---,0.12,VWS V14.00,2013-02-27 07:48:00,
2013-02-27 02:53:00,32.9,31.6,29.60,ENE,77,4.0,8.0,95,0.03,,---,0.12,VWS V14.00,2013-02-27 07:53:00,
2013-02-27 02:58:00,32.9,31.6,29.60,NE,51,4.0,4.0,95,0.02,,---,0.12,VWS V14.00,2013-02-27 07:58:00,
2013-02-27 03:00:00,32.9,31.6,29.60,NE,53,3.0,8.0,95,0.03,,---,0.12,VWS V14.00,2013-02-27 08:00:00,
2013-02-27 03:03:00,32.8,31.5,29.59,NE,47,1.0,6.0,95,0.03,,---,0.13,VWS V14.00,2013-02-27 08:03:00,
2013-02-27 03:08:00,32.8,31.5,29.59,NE,54,3.0,6.0,95,0.04,,---,0.14,VWS V14.00,2013-02-27 08:08:00,
2013-02-27 03:13:00,32.8,31.5,29.59,NE,54,4.0,6.0,95,0.04,,---,0.14,VWS V14.00,2013-02-27 08:13:00,
2013-02-27 03:18:00,32.8,31.5,29.59,NNE,31,3.0,6.0,95,0.04,,---,0.14,VWS V14.00,2013-02-27 08:18:00,
2013-02-27 03:23:00,32.9,31.6,29.58,NE,56,4.0,10.0,95,0.05,,---,0.15,VWS V14.00,2013-02-27 08:23:00,
2013-02-27 03:28:00,32.8,31.5,29.58,ENE,59,1.0,5.0,95,0.04,,---,0.15,VWS V14.00,2013-02-27 08:28:00,
2013-02-27 03:30:00,32.8,31.5,29.58,ENE,59,2.0,10.0,95,0.05,,---,0.15,VWS V14.00,2013-02-27 08:30:00,
2013-02-27 03:33:00,32.9,31.6,29.58,ENE,63,2.0,6.0,95,0.05,,---,0.16,VWS V14.00,2013-02-27 08:33:00,
2013-02-27 03:38:00,32.8,31.5,29.58,NE,44,1.0,6.0,95,0.05,,---,0.16,VWS V14.00,2013-02-27 08:38:00,
2013-02-27 03:43:00,32.8,31.5,29.58,NE,49,3.0,6.0,95,0.06,,---,0.17,VWS V14.00,2013-02-27 08:43:00,
2013-02-27 03:48:00,32.8,31.5,29.58,NE,42,1.0,7.0,95,0.06,,---,0.17,VWS V14.00,2013-02-27 08:48:00,
2013-02-27 03:53:00,32.8,31.5,29.58,NE,47,1.0,7.0,95,0.07,,---,0.18,VWS V14.00,2013-02-27 08:53:00,
2013-02-27 03:58:00,32.8,31.5,29.58,ENE,78,1.0,3.0,95,0.06,,---,0.18,VWS V14.00,2013-02-27 08:58:00,
2013-02-27 04:00:00,32.8,31.5,29.58,ENE,78,0.0,7.0,95,0.07,,---,0.18,VWS V14.00,2013-02-27 09:00:00,
2013-02-27 04:03:00,32.8,31.5,29.58,ENE,74,0.0,4.0,95,0.07,,---,0.19,VWS V14.00,2013-02-27 09:03:00,
2013-02-27 04:09:00,32.8,31.5,29.58,ENE,65,2.0,5.0,95,0.08,,---,0.20,VWS V14.00,2013-02-27 09:09:00,
2013-02-27 04:14:00,32.8,31.5,29.58,ENE,66,2.0,5.0,95,0.08,,---,0.20,VWS V14.00,2013-02-27 09:14:00,
2013-02-27 04:19:00,32.9,31.6,29.58,NE,47,1.0,7.0,95,0.08,,---,0.20,VWS V14.00,2013-02-27 09:19:00,
2013-02-27 04:24:00,33.0,31.7,29.58,NE,38,3.0,7.0,95,0.09,,---,0.21,VWS V14.00,2013-02-27 09:24:00,
2013-02-27 04:29:00,33.0,31.7,29.58,NE,45,3.0,4.0,95,0.06,,---,0.21,VWS V14.00,2013-02-27 09:29:00,
2013-02-27 04:30:00,33.0,31.7,29.58,NE,46,2.0,7.0,95,0.09,,---,0.21,VWS V14.00,2013-02-27 09:30:00,
2013-02-27 04:34:00,33.0,31.7,29.57,NE,44,3.0,6.0,95,0.06,,---,0.21,VWS V14.00,2013-02-27 09:34:00,
2013-02-27 04:39:00,33.0,31.7,29.58,East,87,2.0,6.0,95,0.06,,---,0.21,VWS V14.00,2013-02-27 09:39:00,
2013-02-27 04:44:00,33.0,31.7,29.58,ENE,78,2.0,6.0,95,0.06,,---,0.21,VWS V14.00,2013-02-27 09:44:00,
2013-02-27 04:49:00,33.1,31.8,29.58,ENE,72,1.0,6.0,95,0.06,,---,0.21,VWS V14.00,2013-02-27 09:49:00,
2013-02-27 04:54:00,33.0,31.7,29.58,ENE,71,1.0,6.0,95,0.06,,---,0.21,VWS V14.00,2013-02-27 09:54:00,
2013-02-27 04:59:00,33.0,31.7,29.58,NE,49,1.0,4.0,95,0.04,,---,0.22,VWS V14.00,2013-02-27 09:59:00,
2013-02-27 05:00:00,33.0,31.7,29.58,NE,51,1.0,6.0,95,0.07,,---,0.22,VWS V14.00,2013-02-27 10:00:00,
2013-02-27 05:04:00,33.0,31.7,29.58,NE,49,0.0,4.0,95,0.04,,---,0.22,VWS V14.00,2013-02-27 10:04:00,
2013-02-27 05:09:00,32.9,31.6,29.58,NE,51,3.0,6.0,95,0.05,,---,0.23,VWS V14.00,2013-02-27 10:09:00,
2013-02-27 05:14:00,32.9,31.6,29.58,NE,51,2.0,6.0,95,0.05,,---,0.23,VWS V14.00,2013-02-27 10:14:00,
2013-02-27 05:19:00,32.9,31.6,29.58,NE,51,2.0,6.0,95,0.06,,---,0.24,VWS V14.00,2013-02-27 10:19:00,
2013-02-27 05:24:00,32.9,31.6,29.58,NE,51,3.0,6.0,95,0.06,,---,0.24,VWS V14.00,2013-02-27 10:24:00,
2013-02-27 05:29:00,32.9,31.6,29.57,NE,49,1.0,5.0,95,0.03,,---,0.24,VWS V14.00,2013-02-27 10:29:00,
2013-02-27 05:30:00,32.8,31.5,29.58,NE,49,5.0,6.0,95,0.06,,---,0.24,VWS V14.00,2013-02-27 10:30:00,
2013-02-27 05:34:00,32.9,31.6,29.58,NE,48,2.0,5.0,95,0.04,,---,0.25,VWS V14.00,2013-02-27 10:34:00,
2013-02-27 05:39:00,32.9,31.6,29.57,NE,44,4.0,6.0,95,0.04,,---,0.25,VWS V14.00,2013-02-27 10:39:00,
2013-02-27 05:44:00,32.9,31.6,29.58,ENE,71,4.0,7.0,95,0.04,,---,0.25,VWS V14.00,2013-02-27 10:44:00,
2013-02-27 05:49:00,32.9,31.6,29.57,NE,48,4.0,7.0,95,0.04,,---,0.25,VWS V14.00,2013-02-27 10:49:00,
2013-02-27 05:54:00,32.9,31.6,29.58,NE,51,1.0,7.0,95,0.04,,---,0.25,VWS V14.00,2013-02-27 10:54:00,
2013-02-27 05:59:00,32.9,31.6,29.57,ENE,69,2.0,4.0,95,0.03,,---,0.25,VWS V14.00,2013-02-27 10:59:00,
2013-02-27 06:00:00,33.0,31.7,29.57,ENE,68,2.0,7.0,95,0.04,,---,0.25,VWS V14.00,2013-02-27 11:00:00,
2013-02-27 06:04:00,32.9,31.6,29.58,ENE,57,0.0,5.0,95,0.03,,---,0.25,VWS V14.00,2013-02-27 11:04:00,
2013-02-27 06:09:00,32.9,31.6,29.58,ENE,60,1.0,5.0,95,0.04,,---,0.26,VWS V14.00,2013-02-27 11:09:00,
2013-02-27 06:14:00,32.9,31.6,29.58,ENE,61,4.0,6.0,95,0.04,,---,0.26,VWS V14.00,2013-02-27 11:14:00,
2013-02-27 06:19:00,32.9,31.6,29.58,ENE,60,3.0,7.0,95,0.04,,---,0.26,VWS V14.00,2013-02-27 11:19:00,
2013-02-27 06:24:00,33.0,31.7,29.58,ENE,62,1.0,7.0,95,0.04,,---,0.26,VWS V14.00,2013-02-27 11:24:00,
2013-02-27 06:29:00,33.0,31.7,29.58,NE,44,2.0,7.0,95,0.02,,---,0.26,VWS V14.00,2013-02-27 11:29:00,
2013-02-27 06:30:00,33.0,31.7,29.58,North,360,1.0,7.0,95,0.04,,---,0.26,VWS V14.00,2013-02-27 11:30:00,
2013-02-27 06:34:00,33.1,31.8,29.58,NE,43,4.0,7.0,95,0.02,,---,0.26,VWS V14.00,2013-02-27 11:34:00,
2013-02-27 06:39:00,33.1,31.8,29.58,NE,46,3.0,7.0,95,0.02,,---,0.26,VWS V14.00,2013-02-27 11:39:00,
2013-02-27 06:44:00,33.1,31.8,29.58,NE,47,1.0,7.0,95,0.02,,---,0.26,VWS V14.00,2013-02-27 11:44:00,
2013-02-27 06:49:00,33.1,31.8,29.58,ENE,74,4.0,7.0,95,0.02,,---,0.26,VWS V14.00,2013-02-27 11:49:00,
2013-02-27 06:54:00,33.2,31.9,29.58,NE,40,3.0,7.0,95,0.02,,---,0.26,VWS V14.00,2013-02-27 11:54:00,
2013-02-27 06:59:00,33.2,31.9,29.58,NE,55,2.0,6.0,95,0.01,,---,0.26,VWS V14.00,2013-02-27 11:59:00,
2013-02-27 07:00:00,33.2,31.9,29.58,NE,41,1.0,7.0,95,0.02,,---,0.26,VWS V14.00,2013-02-27 12:00:00,
2013-02-27 07:04:00,33.2,31.9,29.58,ENE,71,0.0,6.0,95,0.01,,---,0.26,VWS V14.00,2013-02-27 12:04:00,
2013-02-27 07:09:00,33.2,31.9,29.58,NNE,13,2.0,6.0,95,0.01,,---,0.26,VWS V14.00,2013-02-27 12:09:00,
2013-02-27 07:14:00,33.2,31.9,29.58,NE,40,2.0,7.0,95,0.01,,---,0.26,VWS V14.00,2013-02-27 12:14:00,
2013-02-27 07:19:00,33.2,31.9,29.58,NE,40,3.0,8.0,95,0.01,,---,0.26,VWS V14.00,2013-02-27 12:19:00,
2013-02-27 07:24:00,33.3,32.0,29.58,NNE,31,3.0,8.0,95,0.01,,---,0.26,VWS V14.00,2013-02-27 12:24:00,
2013-02-27 07:29:00,33.3,32.0,29.58,NNE,28,2.0,4.0,95,0.00,,---,0.26,VWS V14.00,2013-02-27 12:29:00,
2013-02-27 07:30:00,33.3,32.0,29.58,NNE,29,3.0,8.0,95,0.01,,---,0.26,VWS V14.00,2013-02-27 12:30:00,
2013-02-27 07:34:00,33.3,32.0,29.58,NNE,28,3.0,6.0,95,0.00,,---,0.26,VWS V14.00,2013-02-27 12:34:00,
2013-02-27 07:39:00,33.3,32.0,29.58,NE,49,0.0,7.0,95,0.00,,---,0.26,VWS V14.00,2013-02-27 12:39:00,
2013-02-27 07:44:00,33.3,32.0,29.58,NE,50,0.0,7.0,95,0.00,,---,0.26,VWS V14.00,2013-02-27 12:44:00,
2013-02-27 07:49:00,33.3,32.0,29.58,North,355,3.0,7.0,95,0.00,,---,0.26,VWS V14.00,2013-02-27 12:49:00,
2013-02-27 07:54:00,33.3,32.0,29.59,NNE,23,2.0,7.0,95,0.00,,---,0.26,VWS V14.00,2013-02-27 12:54:00,
2013-02-27 07:59:00,33.3,32.0,29.59,NE,47,4.0,5.0,95,0.00,,---,0.26,VWS V14.00,2013-02-27 12:59:00,
2013-02-27 08:00:00,33.3,32.0,29.58,NE,48,3.0,9.0,95,0.00,,---,0.26,VWS V14.00,2013-02-27 13:00:00,
2013-02-27 08:04:00,33.3,32.0,29.59,NE,36,3.0,7.0,95,0.00,,---,0.26,VWS V14.00,2013-02-27 13:04:00,
2013-02-27 08:09:00,33.3,32.0,29.58,NE,47,4.0,7.0,95,0.00,,---,0.26,VWS V14.00,2013-02-27 13:09:00,
2013-02-27 08:14:00,33.2,31.9,29.58,ENE,78,2.0,8.0,95,0.00,,---,0.26,VWS V14.00,2013-02-27 13:14:00,
2013-02-27 08:19:00,33.3,32.0,29.58,East,95,2.0,11.0,95,0.00,,---,0.26,VWS V14.00,2013-02-27 13:19:00,
2013-02-27 08:24:00,33.3,32.0,29.58,ENE,57,2.0,11.0,95,0.00,,---,0.26,VWS V14.00,2013-02-27 13:24:00,
2013-02-27 08:29:00,33.3,32.0,29.58,ENE,61,1.0,6.0,95,0.00,,---,0.26,VWS V14.00,2013-02-27 13:29:00,
2013-02-27 08:30:00,33.3,32.0,29.58,ENE,78,4.0,11.0,95,0.00,,---,0.26,VWS V14.00,2013-02-27 13:30:00,
2013-02-27 08:34:00,33.3,32.0,29.58,ENE,70,4.0,6.0,95,0.00,,---,0.26,VWS V14.00,2013-02-27 13:34:00,
2013-02-27 08:39:00,33.4,32.1,29.59,ENE,76,1.0,7.0,95,0.00,,---,0.26,VWS V14.00,2013-02-27 13:39:00,
2013-02-27 08:44:00,33.5,32.2,29.59,North,5,3.0,7.0,95,0.00,,---,0.26,VWS V14.00,2013-02-27 13:44:00,
2013-02-27 08:49:00,33.6,32.3,29.59,ENE,59,2.0,8.0,95,0.00,,---,0.26,VWS V14.00,2013-02-27 13:49:00,
2013-02-27 08:54:00,33.7,32.4,29.59,NE,53,1.0,8.0,95,0.00,,---,0.26,VWS V14.00,2013-02-27 13:54:00,
2013-02-27 08:59:00,33.7,32.4,29.59,NNE,18,2.0,8.0,95,0.01,,---,0.27,VWS V14.00,2013-02-27 13:59:00,
2013-02-27 09:00:00,33.7,32.4,29.59,NNE,32,1.0,8.0,95,0.01,,---,0.27,VWS V14.00,2013-02-27 14:00:00,
2013-02-27 09:04:00,33.8,32.5,29.59,NE,56,3.0,8.0,95,0.01,,---,0.27,VWS V14.00,2013-02-27 14:04:00,
2013-02-27 09:09:00,33.9,32.6,29.59,ENE,70,2.0,8.0,95,0.01,,---,0.27,VWS V14.00,2013-02-27 14:09:00,
2013-02-27 09:14:00,33.9,32.6,29.59,NNE,17,3.0,8.0,95,0.01,,---,0.27,VWS V14.00,2013-02-27 14:14:00,
2013-02-27 09:19:00,33.9,32.6,29.59,NE,56,1.0,8.0,95,0.01,,---,0.27,VWS V14.00,2013-02-27 14:19:00,
2013-02-27 09:24:00,34.1,32.8,29.59,NE,54,2.0,8.0,95,0.01,,---,0.27,VWS V14.00,2013-02-27 14:24:00,
2013-02-27 09:29:00,34.1,32.8,29.59,ENE,61,5.0,8.0,95,0.01,,---,0.27,VWS V14.00,2013-02-27 14:29:00,
2013-02-27 09:30:00,34.1,32.8,29.59,East,84,3.0,8.0,95,0.01,,---,0.27,VWS V14.00,2013-02-27 14:30:00,
2013-02-27 09:34:00,34.1,32.8,29.59,East,86,3.0,8.0,95,0.01,,---,0.27,VWS V14.00,2013-02-27 14:34:00,
2013-02-27 09:39:00,34.2,32.9,29.59,NNE,32,3.0,8.0,95,0.01,,---,0.27,VWS V14.00,2013-02-27 14:39:00,
2013-02-27 09:44:00,34.2,32.9,29.59,East,83,1.0,8.0,95,0.01,,---,0.27,VWS V14.00,2013-02-27 14:44:00,
2013-02-27 09:49:00,34.3,32.8,29.59,NE,34,1.0,9.0,94,0.01,,---,0.27,VWS V14.00,2013-02-27 14:49:00,
2013-02-27 09:54:00,34.4,32.9,29.59,East,88,4.0,9.0,94,0.01,,---,0.27,VWS V14.00,2013-02-27 14:54:00,
2013-02-27 09:59:00,34.5,33.0,29.59,NE,44,3.0,6.0,94,0.00,,---,0.27,VWS V14.00,2013-02-27 14:59:00,
2013-02-27 10:00:00,34.4,32.9,29.59,East,88,3.0,9.0,94,0.01,,---,0.27,VWS V14.00,2013-02-27 15:00:00,
2013-02-27 10:04:00,34.5,33.0,29.59,NE,36,4.0,7.0,94,0.00,,---,0.27,VWS V14.00,2013-02-27 15:04:00,
2013-02-27 10:09:00,34.5,33.0,29.59,NNE,14,4.0,7.0,94,0.00,,---,0.27,VWS V14.00,2013-02-27 15:09:00,
2013-02-27 10:14:00,34.6,33.0,29.59,ENE,70,2.0,7.0,94,0.00,,---,0.27,VWS V14.00,2013-02-27 15:14:00,
2013-02-27 10:20:00,34.6,33.0,29.59,ENE,76,4.0,7.0,94,0.00,,---,0.27,VWS V14.00,2013-02-27 15:20:00,
2013-02-27 10:25:00,34.7,32.9,29.59,NE,49,4.0,8.0,93,0.00,,---,0.27,VWS V14.00,2013-02-27 15:25:00,
2013-02-27 10:30:00,34.8,33.0,29.59,ENE,72,4.0,4.0,93,0.00,,---,0.27,VWS V14.00,2013-02-27 15:30:00,
2013-02-27 10:35:00,34.9,33.1,29.59,ENE,69,4.0,5.0,93,0.00,,---,0.27,VWS V14.00,2013-02-27 15:35:00,
2013-02-27 10:40:00,35.0,33.2,29.59,NE,46,2.0,6.0,93,0.00,,---,0.27,VWS V14.00,2013-02-27 15:40:00,
2013-02-27 10:45:00,35.1,33.3,29.59,NNE,25,1.0,6.0,93,0.00,,---,0.27,VWS V14.00,2013-02-27 15:45:00,
2013-02-27 10:50:00,35.2,33.4,29.59,ENE,78,3.0,6.0,93,0.00,,---,0.27,VWS V14.00,2013-02-27 15:50:00,
2013-02-27 10:55:00,35.3,33.2,29.59,NE,44,1.0,6.0,92,0.00,,---,0.27,VWS V14.00,2013-02-27 15:55:00,
2013-02-27 11:00:00,35.4,33.3,29.59,ENE,74,3.0,4.0,92,0.00,,---,0.27,VWS V14.00,2013-02-27 16:00:00,
2013-02-27 11:05:00,35.4,33.3,29.59,ENE,69,2.0,8.0,92,0.00,,---,0.27,VWS V14.00,2013-02-27 16:05:00,
2013-02-27 11:10:00,35.4,33.3,29.59,ENE,71,1.0,8.0,92,0.00,,---,0.27,VWS V14.00,2013-02-27 16:10:00,
2013-02-27 11:15:00,35.4,33.3,29.59,NE,48,5.0,8.0,92,0.00,,---,0.27,VWS V14.00,2013-02-27 16:15:00,
2013-02-27 11:20:00,35.4,33.3,29.59,ENE,65,2.0,8.0,92,0.00,,---,0.27,VWS V14.00,2013-02-27 16:20:00,
2013-02-27 11:25:00,35.4,33.3,29.59,NE,55,2.0,8.0,92,0.00,,---,0.27,VWS V14.00,2013-02-27 16:25:00,
2013-02-27 11:30:00,35.3,33.2,29.59,North,355,1.0,5.0,92,0.00,,---,0.27,VWS V14.00,2013-02-27 16:30:00,
2013-02-27 11:35:00,35.3,33.2,29.59,NNE,30,3.0,6.0,92,0.00,,---,0.27,VWS V14.00,2013-02-27 16:35:00,
2013-02-27 11:40:00,35.3,33.2,29.59,ENE,63,3.0,7.0,92,0.00,,---,0.27,VWS V14.00,2013-02-27 16:40:00,
2013-02-27 11:45:00,35.2,33.1,29.59,East,85,3.0,7.0,92,0.00,,---,0.27,VWS V14.00,2013-02-27 16:45:00,
2013-02-27 11:50:00,35.2,33.1,29.59,East,79,4.0,7.0,92,0.00,,---,0.27,VWS V14.00,2013-02-27 16:50:00,
2013-02-27 11:55:00,35.2,33.1,29.59,NE,39,2.0,7.0,92,0.00,,---,0.27,VWS V14.00,2013-02-27 16:55:00,
2013-02-27 12:00:00,35.2,33.1,29.59,ENE,70,2.0,7.0,92,0.00,,---,0.27,VWS V14.00,2013-02-27 17:00:00,
2013-02-27 12:05:00,35.3,33.2,29.59,NNE,22,1.0,7.0,92,0.00,,---,0.27,VWS V14.00,2013-02-27 17:05:00,
2013-02-27 12:10:00,35.3,33.2,29.59,NE,53,2.0,8.0,92,0.00,,---,0.27,VWS V14.00,2013-02-27 17:10:00,
2013-02-27 12:15:00,35.3,33.2,29.59,NE,52,3.0,8.0,92,0.00,,---,0.27,VWS V14.00,2013-02-27 17:15:00,
2013-02-27 12:20:00,35.2,33.1,29.59,East,80,3.0,8.0,92,0.00,,---,0.27,VWS V14.00,2013-02-27 17:20:00,
2013-02-27 12:25:00,35.2,33.1,29.60,NNE,12,4.0,8.0,92,0.00,,---,0.27,VWS V14.00,2013-02-27 17:25:00,
2013-02-27 12:30:00,35.3,33.2,29.60,NNE,15,3.0,4.0,92,0.00,,---,0.27,VWS V14.00,2013-02-27 17:30:00,
2013-02-27 12:35:00,35.4,33.3,29.60,ENE,59,3.0,5.0,92,0.00,,---,0.27,VWS V14.00,2013-02-27 17:35:00,
2013-02-27 12:40:00,35.3,33.2,29.60,NE,53,2.0,5.0,92,0.00,,---,0.27,VWS V14.00,2013-02-27 17:40:00,
2013-02-27 12:45:00,35.3,33.2,29.59,NE,34,0.0,5.0,92,0.00,,---,0.27,VWS V14.00,2013-02-27 17:45:00,
2013-02-27 12:50:00,35.3,33.2,29.59,East,88,2.0,6.0,92,0.00,,---,0.27,VWS V14.00,2013-02-27 17:50:00,
2013-02-27 12:55:00,35.3,33.2,29.59,NE,48,2.0,6.0,92,0.00,,---,0.27,VWS V14.00,2013-02-27 17:55:00,
2013-02-27 13:00:00,35.4,33.3,29.59,NNE,30,0.0,4.0,92,0.01,,---,0.28,VWS V14.00,2013-02-27 18:00:00,
2013-02-27 13:05:00,35.4,33.3,29.59,ENE,76,4.0,5.0,92,0.01,,---,0.28,VWS V14.00,2013-02-27 18:05:00,
2013-02-27 13:10:00,35.3,33.2,29.58,NE,51,1.0,6.0,92,0.01,,---,0.28,VWS V14.00,2013-02-27 18:10:00,
2013-02-27 13:15:00,35.2,33.1,29.58,North,9,3.0,6.0,92,0.01,,---,0.28,VWS V14.00,2013-02-27 18:15:00,
2013-02-27 13:20:00,35.2,33.1,29.58,NNE,31,3.0,7.0,92,0.01,,---,0.28,VWS V14.00,2013-02-27 18:20:00,
2013-02-27 13:25:00,35.1,33.0,29.58,NE,38,3.0,7.0,92,0.01,,---,0.28,VWS V14.00,2013-02-27 18:25:00,
2013-02-27 13:30:00,35.1,33.0,29.59,ENE,61,2.0,7.0,92,0.01,,---,0.28,VWS V14.00,2013-02-27 18:30:00,
2013-02-27 13:35:00,35.0,32.9,29.59,NNE,13,3.0,7.0,92,0.01,,---,0.28,VWS V14.00,2013-02-27 18:35:00,
2013-02-27 13:40:00,34.9,32.8,29.59,NE,53,4.0,7.0,92,0.01,,---,0.28,VWS V14.00,2013-02-27 18:40:00,
2013-02-27 13:45:00,34.8,33.0,29.59,NE,56,1.0,7.0,93,0.01,,---,0.28,VWS V14.00,2013-02-27 18:45:00,
2013-02-27 13:50:00,34.8,33.0,29.59,NE,46,3.0,7.0,93,0.01,,---,0.28,VWS V14.00,2013-02-27 18:50:00,
2013-02-27 13:55:00,34.7,32.9,29.59,NE,47,2.0,7.0,93,0.02,,---,0.29,VWS V14.00,2013-02-27 18:55:00,
2013-02-27 14:00:00,34.8,33.0,29.59,ENE,75,2.0,4.0,93,0.02,,---,0.29,VWS V14.00,2013-02-27 19:00:00,
2013-02-27 14:05:00,34.8,33.0,29.59,NE,43,3.0,6.0,93,0.02,,---,0.29,VWS V14.00,2013-02-27 19:05:00,
2013-02-27 14:10:00,34.7,32.9,29.58,ENE,57,1.0,6.0,93,0.02,,---,0.29,VWS V14.00,2013-02-27 19:10:00,
2013-02-27 14:15:00,34.7,32.9,29.59,ENE,57,1.0,6.0,93,0.02,,---,0.29,VWS V14.00,2013-02-27 19:15:00,
2013-02-27 14:20:00,34.8,33.0,29.58,NE,36,2.0,6.0,93,0.02,,---,0.29,VWS V14.00,2013-02-27 19:20:00,
2013-02-27 14:25:00,35.0,33.2,29.58,ENE,65,1.0,6.0,93,0.02,,---,0.29,VWS V14.00,2013-02-27 19:25:00,
2013-02-27 14:30:00,34.9,33.1,29.58,NE,35,3.0,5.0,93,0.01,,---,0.29,VWS V14.00,2013-02-27 19:30:00,
2013-02-27 14:35:00,34.9,33.1,29.59,NNE,33,1.0,5.0,93,0.01,,---,0.29,VWS V14.00,2013-02-27 19:35:00,
2013-02-27 14:40:00,35.0,33.2,29.59,NNW,348,2.0,5.0,93,0.01,,---,0.29,VWS V14.00,2013-02-27 19:40:00,
2013-02-27 14:45:00,34.9,33.1,29.59,North,5,2.0,6.0,93,0.01,,---,0.29,VWS V14.00,2013-02-27 19:45:00,
2013-02-27 14:50:00,34.9,33.1,29.58,North,9,2.0,7.0,93,0.01,,---,0.29,VWS V14.00,2013-02-27 19:50:00,
2013-02-27 14:55:00,35.0,33.2,29.58,NE,48,3.0,7.0,93,0.01,,---,0.29,VWS V14.00,2013-02-27 19:55:00,
2013-02-27 15:00:00,35.0,33.2,29.59,NNE,21,1.0,6.0,93,0.00,,---,0.29,VWS V14.00,2013-02-27 20:00:00,
2013-02-27 15:05:00,35.0,33.2,29.59,NNE,23,4.0,6.0,93,0.00,,---,0.29,VWS V14.00,2013-02-27 20:05:00,
2013-02-27 15:11:00,34.8,33.0,29.59,NNE,22,2.0,6.0,93,0.00,,---,0.29,VWS V14.00,2013-02-27 20:11:00,
2013-02-27 15:16:00,34.8,33.0,29.59,ENE,61,2.0,6.0,93,0.00,,---,0.29,VWS V14.00,2013-02-27 20:16:00,
2013-02-27 15:21:00,34.8,33.0,29.59,NNW,348,1.0,6.0,93,0.00,,---,0.29,VWS V14.00,2013-02-27 20:21:00,
2013-02-27 15:26:00,34.8,33.0,29.59,NE,44,2.0,6.0,93,0.00,,---,0.29,VWS V14.00,2013-02-27 20:26:00,
2013-02-27 15:30:00,34.8,33.0,29.59,North,9,4.0,6.0,93,0.00,,---,0.29,VWS V14.00,2013-02-27 20:30:00,
2013-02-27 15:31:00,34.8,33.0,29.59,ENE,75,4.0,5.0,93,0.00,,---,0.29,VWS V14.00,2013-02-27 20:31:00,
2013-02-27 15:36:00,34.7,32.9,29.59,ENE,61,2.0,7.0,93,0.00,,---,0.29,VWS V14.00,2013-02-27 20:36:00,
2013-02-27 15:41:00,34.6,32.8,29.59,ENE,75,2.0,7.0,93,0.00,,---,0.29,VWS V14.00,2013-02-27 20:41:00,
2013-02-27 15:46:00,34.6,32.8,29.59,NNE,32,0.0,7.0,93,0.00,,---,0.29,VWS V14.00,2013-02-27 20:46:00,
2013-02-27 15:51:00,34.7,32.9,29.59,NNE,32,1.0,7.0,93,0.00,,---,0.29,VWS V14.00,2013-02-27 20:51:00,
2013-02-27 15:56:00,34.8,33.0,29.59,NNW,347,1.0,7.0,93,0.00,,---,0.29,VWS V14.00,2013-02-27 20:56:00,
2013-02-27 16:00:00,34.8,33.2,29.59,NNW,346,4.0,7.0,94,0.00,,---,0.29,VWS V14.00,2013-02-27 21:00:00,
2013-02-27 16:01:00,34.9,33.3,29.59,North,5,4.0,5.0,94,0.00,,---,0.29,VWS V14.00,2013-02-27 21:01:00,
2013-02-27 16:06:00,35.0,33.5,29.59,North,9,2.0,5.0,94,0.00,,---,0.29,VWS V14.00,2013-02-27 21:06:00,
2013-02-27 16:11:00,35.0,33.5,29.60,North,11,0.0,5.0,94,0.00,,---,0.29,VWS V14.00,2013-02-27 21:11:00,
2013-02-27 16:16:00,35.1,33.5,29.60,NNE,13,0.0,5.0,94,0.00,,---,0.29,VWS V14.00,2013-02-27 21:16:00,
2013-02-27 16:21:00,35.1,33.5,29.60,NNE,13,3.0,5.0,94,0.00,,---,0.29,VWS V14.00,2013-02-27 21:21:00,
2013-02-27 16:26:00,35.0,33.5,29.60,NNE,13,3.0,5.0,94,0.00,,---,0.29,VWS V14.00,2013-02-27 21:26:00,
2013-02-27 16:30:00,35.0,33.5,29.60,NNE,13,3.0,5.0,94,0.00,,---,0.29,VWS V14.00,2013-02-27 21:30:00,
2013-02-27 16:31:00,34.9,33.3,29.60,NNE,28,5.0,5.0,94,0.00,,---,0.29,VWS V14.00,2013-02-27 21:31:00,
2013-02-27 16:36:00,34.8,33.2,29.60,North,360,1.0,7.0,94,0.01,,---,0.30,VWS V14.00,2013-02-27 21:36:00,
2013-02-27 16:41:00,34.7,33.2,29.61,North,360,3.0,7.0,94,0.01,,---,0.30,VWS V14.00,2013-02-27 21:41:00,
2013-02-27 16:46:00,34.6,33.0,29.61,North,349,5.0,7.0,94,0.01,,---,0.30,VWS V14.00,2013-02-27 21:46:00,
2013-02-27 16:51:00,34.5,33.0,29.61,NNE,19,0.0,7.0,94,0.01,,---,0.30,VWS V14.00,2013-02-27 21:51:00,
2013-02-27 16:56:00,34.5,33.0,29.61,North,5,3.0,7.0,94,0.01,,---,0.30,VWS V14.00,2013-02-27 21:56:00,
2013-02-27 17:00:00,34.4,32.9,29.60,North,5,0.0,7.0,94,0.01,,---,0.30,VWS V14.00,2013-02-27 22:00:00,
2013-02-27 17:01:00,34.4,32.9,29.60,North,5,3.0,3.0,94,0.01,,---,0.30,VWS V14.00,2013-02-27 22:01:00,
2013-02-27 17:06:00,34.3,32.8,29.61,NNE,30,0.0,4.0,94,0.01,,---,0.30,VWS V14.00,2013-02-27 22:06:00,
2013-02-27 17:11:00,34.2,32.7,29.61,NNE,32,1.0,4.0,94,0.01,,---,0.30,VWS V14.00,2013-02-27 22:11:00,
2013-02-27 17:16:00,34.2,32.7,29.61,North,5,3.0,4.0,94,0.01,,---,0.30,VWS V14.00,2013-02-27 22:16:00,
2013-02-27 17:21:00,34.2,32.7,29.61,North,5,1.0,5.0,94,0.01,,---,0.30,VWS V14.00,2013-02-27 22:21:00,
2013-02-27 17:26:00,34.2,32.7,29.61,North,355,3.0,5.0,94,0.01,,---,0.30,VWS V14.00,2013-02-27 22:26:00,
2013-02-27 17:30:00,34.2,32.7,29.61,North,355,0.0,5.0,94,0.01,,---,0.30,VWS V14.00,2013-02-27 22:30:00,
2013-02-27 17:31:00,34.1,32.6,29.61,North,360,3.0,7.0,94,0.01,,---,0.30,VWS V14.00,2013-02-27 22:31:00,
2013-02-27 17:36:00,34.1,32.6,29.61,North,360,4.0,7.0,94,0.01,,---,0.30,VWS V14.00,2013-02-27 22:36:00,
2013-02-27 17:41:00,34.0,32.5,29.61,North,5,2.0,7.0,94,0.02,,---,0.31,VWS V14.00,2013-02-27 22:41:00,
2013-02-27 17:46:00,34.0,32.5,29.61,North,5,4.0,7.0,94,0.02,,---,0.31,VWS V14.00,2013-02-27 22:46:00,
2013-02-27 17:51:00,33.9,32.4,29.62,NNE,31,2.0,7.0,94,0.02,,---,0.31,VWS V14.00,2013-02-27 22:51:00,
2013-02-27 17:56:00,33.9,32.4,29.62,NNW,347,0.0,7.0,94,0.02,,---,0.31,VWS V14.00,2013-02-27 22:56:00,
2013-02-27 18:00:00,33.9,32.4,29.62,North,349,1.0,7.0,94,0.02,,---,0.31,VWS V14.00,2013-02-27 23:00:00,
2013-02-27 18:01:00,33.8,32.3,29.62,NNW,348,0.0,4.0,94,0.01,,---,0.31,VWS V14.00,2013-02-27 23:01:00,
2013-02-27 18:06:00,33.8,32.3,29.62,North,350,1.0,4.0,94,0.01,,---,0.31,VWS V14.00,2013-02-27 23:06:00,
2013-02-27 18:11:00,33.8,32.3,29.62,North,10,3.0,4.0,94,0.01,,---,0.31,VWS V14.00,2013-02-27 23:11:00,
2013-02-27 18:16:00,33.8,32.3,29.62,NNE,22,3.0,4.0,94,0.01,,---,0.31,VWS V14.00,2013-02-27 23:16:00,
2013-02-27 18:21:00,33.7,32.2,29.62,North,355,2.0,6.0,94,0.02,,---,0.32,VWS V14.00,2013-02-27 23:21:00,
2013-02-27 18:26:00,33.6,32.1,29.62,North,355,0.0,6.0,94,0.02,,---,0.32,VWS V14.00,2013-02-27 23:26:00,
2013-02-27 18:30:00,33.6,32.1,29.62,North,355,3.0,6.0,94,0.02,,---,0.32,VWS V14.00,2013-02-27 23:30:00,
2013-02-27 18:31:00,33.5,32.0,29.62,North,10,3.0,6.0,94,0.02,,---,0.32,VWS V14.00,2013-02-27 23:31:00,
2013-02-27 18:36:00,33.5,32.0,29.62,North,10,3.0,6.0,94,0.02,,---,0.32,VWS V14.00,2013-02-27 23:36:00,
2013-02-27 18:41:00,33.5,32.0,29.62,North,9,0.0,6.0,94,0.02,,---,0.32,VWS V14.00,2013-02-27 23:41:00,
2013-02-27 18:46:00,33.5,32.0,29.63,NW,315,1.0,6.0,94,0.02,,---,0.32,VWS V14.00,2013-02-27 23:46:00,
2013-02-27 18:51:00,33.5,32.0,29.62,North,360,3.0,7.0,94,0.02,,---,0.32,VWS V14.00,2013-02-27 23:51:00,
2013-02-27 18:56:00,33.5,32.2,29.63,NNE,26,3.0,7.0,95,0.02,,---,0.32,VWS V14.00,2013-02-27 23:56:00,
2013-02-27 19:00:00,33.5,32.0,29.63,NNE,26,1.0,7.0,94,0.02,,---,0.32,VWS V14.00,2013-02-28 00:00:00,
2013-02-27 19:01:00,33.5,32.2,29.63,North,355,2.0,6.0,95,0.01,,---,0.32,VWS V14.00,2013-02-28 00:01:00,
2013-02-27 19:06:00,33.5,32.2,29.63,NNE,16,2.0,6.0,95,0.01,,---,0.32,VWS V14.00,2013-02-28 00:06:00,
2013-02-27 19:11:00,33.5,32.0,29.63,North,355,1.0,6.0,94,0.01,,---,0.32,VWS V14.00,2013-02-28 00:11:00,
2013-02-27 19:16:00,33.5,32.0,29.63,NNE,19,2.0,6.0,94,0.01,,---,0.32,VWS V14.00,2013-02-28 00:16:00,
2013-02-27 19:21:00,33.5,32.0,29.64,North,355,1.0,7.0,94,0.01,,---,0.32,VWS V14.00,2013-02-28 00:21:00,
2013-02-27 19:26:00,33.4,31.9,29.64,North,9,2.0,8.0,94,0.01,,---,0.32,VWS V14.00,2013-02-28 00:26:00,
2013-02-27 19:30:00,33.5,32.0,29.64,North,5,3.0,8.0,94,0.01,,---,0.32,VWS V14.00,2013-02-28 00:30:00,
2013-02-27 19:31:00,33.5,32.2,29.64,NNE,16,0.0,5.0,95,0.00,,---,0.32,VWS V14.00,2013-02-28 00:31:00,
2013-02-27 19:36:00,33.5,32.2,29.64,North,360,2.0,8.0,95,0.00,,---,0.32,VWS V14.00,2013-02-28 00:36:00,
2013-02-27 19:41:00,33.5,32.2,29.64,North,350,4.0,8.0,95,0.00,,---,0.32,VWS V14.00,2013-02-28 00:41:00,
2013-02-27 19:46:00,33.5,32.2,29.64,NNW,345,2.0,8.0,95,0.00,,---,0.32,VWS V14.00,2013-02-28 00:46:00,
2013-02-27 19:51:00,33.4,32.1,29.64,NNE,20,3.0,8.0,95,0.00,,---,0.32,VWS V14.00,2013-02-28 00:51:00,
2013-02-27 19:56:00,33.4,32.1,29.64,North,5,3.0,8.0,95,0.00,,---,0.32,VWS V14.00,2013-02-28 00:56:00,
2013-02-27 20:00:00,33.4,32.1,29.64,North,355,5.0,8.0,95,0.00,,---,0.32,VWS V14.00,2013-02-28 01:00:00,
2013-02-27 20:01:00,33.5,32.2,29.64,NNE,15,0.0,5.0,95,0.00,,---,0.32,VWS V14.00,2013-02-28 01:01:00,
2013-02-27 20:07:00,33.5,32.2,29.63,North,360,2.0,6.0,95,0.00,,---,0.32,VWS V14.00,2013-02-28 01:07:00,
2013-02-27 20:12:00,33.4,32.1,29.63,NNE,27,5.0,6.0,95,0.00,,---,0.32,VWS V14.00,2013-02-28 01:12:00,
2013-02-27 20:17:00,33.5,32.2,29.63,NE,49,2.0,6.0,95,0.00,,---,0.32,VWS V14.00,2013-02-28 01:17:00,
2013-02-27 20:22:00,33.5,32.2,29.63,NNE,15,6.0,6.0,95,0.00,,---,0.32,VWS V14.00,2013-02-28 01:22:00,
2013-02-27 20:27:00,33.4,32.1,29.63,NNE,18,2.0,7.0,95,0.01,,---,0.33,VWS V14.00,2013-02-28 01:27:00,
2013-02-27 20:30:00,33.4,32.1,29.63,NE,51,3.0,7.0,95,0.01,,---,0.33,VWS V14.00,2013-02-28 01:30:00,
2013-02-27 20:32:00,33.5,32.2,29.63,ENE,71,2.0,7.0,95,0.01,,---,0.33,VWS V14.00,2013-02-28 01:32:00,
2013-02-27 20:37:00,33.4,32.1,29.63,North,9,7.0,8.0,95,0.01,,---,0.33,VWS V14.00,2013-02-28 01:37:00,
2013-02-27 20:42:00,33.3,32.0,29.63,NNE,13,1.0,8.0,95,0.01,,---,0.33,VWS V14.00,2013-02-28 01:42:00,
2013-02-27 20:47:00,33.3,32.0,29.63,North,5,2.0,8.0,95,0.01,,---,0.33,VWS V14.00,2013-02-28 01:47:00,
2013-02-27 20:52:00,33.3,32.0,29.63,NNE,23,2.0,8.0,95,0.01,,---,0.33,VWS V14.00,2013-02-28 01:52:00,
2013-02-27 20:57:00,33.3,32.0,29.63,North,360,3.0,8.0,95,0.01,,---,0.33,VWS V14.00,2013-02-28 01:57:00,
2013-02-27 21:00:00,33.3,32.0,29.63,NE,46,3.0,8.0,95,0.01,,---,0.33,VWS V14.00,2013-02-28 02:00:00,
2013-02-27 21:02:00,33.3,32.0,29.64,NNE,21,8.0,10.0,95,0.02,,---,0.34,VWS V14.00,2013-02-28 02:02:00,
2013-02-27 21:07:00,33.2,31.9,29.64,North,360,5.0,11.0,95,0.02,,---,0.34,VWS V14.00,2013-02-28 02:07:00,
2013-02-27 21:12:00,33.2,31.9,29.64,NNE,27,6.0,11.0,95,0.02,,---,0.34,VWS V14.00,2013-02-28 02:12:00,
2013-02-27 21:17:00,33.2,31.9,29.64,NNE,24,6.0,11.0,95,0.02,,---,0.34,VWS V14.00,2013-02-28 02:17:00,
2013-02-27 21:22:00,33.2,31.9,29.64,NE,54,7.0,11.0,95,0.02,,---,0.34,VWS V14.00,2013-02-28 02:22:00,
2013-02-27 21:27:00,33.2,31.9,29.64,North,355,3.0,11.0,95,0.02,,---,0.34,VWS V14.00,2013-02-28 02:27:00,
2013-02-27 21:30:00,33.2,31.9,29.64,North,355,6.0,11.0,95,0.02,,---,0.34,VWS V14.00,2013-02-28 02:30:00,
2013-02-27 21:32:00,33.2,31.9,29.63,NNE,24,7.0,8.0,95,0.01,,---,0.34,VWS V14.00,2013-02-28 02:32:00,
2013-02-27 21:37:00,33.2,31.9,29.63,North,5,4.0,10.0,95,0.01,,---,0.34,VWS V14.00,2013-02-28 02:37:00,
2013-02-27 21:42:00,33.2,31.9,29.64,North,350,4.0,10.0,95,0.01,,---,0.34,VWS V14.00,2013-02-28 02:42:00,
2013-02-27 21:47:00,33.3,32.0,29.64,NNW,347,4.0,10.0,95,0.01,,---,0.34,VWS V14.00,2013-02-28 02:47:00,
2013-02-27 21:52:00,33.2,31.9,29.64,North,350,5.0,10.0,95,0.01,,---,0.34,VWS V14.00,2013-02-28 02:52:00,
2013-02-27 21:57:00,33.2,31.9,29.63,NNW,348,4.0,10.0,95,0.01,,---,0.34,VWS V14.00,2013-02-28 02:57:00,
2013-02-27 22:00:00,33.2,31.9,29.63,North,355,6.0,10.0,95,0.01,,---,0.34,VWS V14.00,2013-02-28 03:00:00,
2013-02-27 22:02:00,33.2,31.9,29.64,NNE,19,2.0,9.0,95,0.01,,---,0.34,VWS V14.00,2013-02-28 03:02:00,
2013-02-27 22:07:00,33.1,31.8,29.63,NNE,24,5.0,9.0,95,0.01,,---,0.34,VWS V14.00,2013-02-28 03:07:00,
2013-02-27 22:12:00,33.2,31.9,29.64,North,360,5.0,9.0,95,0.01,,---,0.34,VWS V14.00,2013-02-28 03:12:00,
2013-02-27 22:17:00,33.1,31.8,29.64,North,5,4.0,9.0,95,0.01,,---,0.34,VWS V14.00,2013-02-28 03:17:00,
2013-02-27 22:22:00,33.1,31.8,29.64,NE,34,3.0,9.0,95,0.01,,---,0.34,VWS V14.00,2013-02-28 03:22:00,
2013-02-27 22:27:00,33.1,31.8,29.64,North,355,9.0,9.0,95,0.01,,---,0.34,VWS V14.00,2013-02-28 03:27:00,
2013-02-27 22:30:00,33.1,31.8,29.64,North,350,8.0,9.0,95,0.01,,---,0.34,VWS V14.00,2013-02-28 03:30:00,
2013-02-27 22:32:00,33.1,31.8,29.64,NNE,24,3.0,9.0,95,0.00,,---,0.34,VWS V14.00,2013-02-28 03:32:00,
2013-02-27 22:37:00,33.1,31.8,29.64,North,5,8.0,10.0,95,0.00,,---,0.34,VWS V14.00,2013-02-28 03:37:00,
2013-02-27 22:42:00,33.2,31.9,29.64,NNE,21,6.0,10.0,95,0.00,,---,0.34,VWS V14.00,2013-02-28 03:42:00,
2013-02-27 22:47:00,33.2,31.9,29.63,NW,317,4.0,10.0,95,0.00,,---,0.34,VWS V14.00,2013-02-28 03:47:00,
2013-02-27 22:52:00,33.2,31.9,29.64,North,9,4.0,10.0,95,0.00,,---,0.34,VWS V14.00,2013-02-28 03:52:00,
2013-02-27 22:57:00,33.2,31.9,29.63,North,360,6.0,10.0,95,0.00,,---,0.34,VWS V14.00,2013-02-28 03:57:00,
2013-02-27 23:00:00,33.2,31.9,29.63,North,9,4.0,10.0,95,0.00,,---,0.34,VWS V14.00,2013-02-28 04:00:00,
2013-02-27 23:02:00,33.2,31.9,29.63,North,351,5.0,8.0,95,0.00,,---,0.34,VWS V14.00,2013-02-28 04:02:00,
2013-02-27 23:07:00,33.2,31.9,29.64,NNE,24,3.0,10.0,95,0.00,,---,0.34,VWS V14.00,2013-02-28 04:07:00,
2013-02-27 23:12:00,33.2,31.9,29.64,North,360,0.0,10.0,95,0.00,,---,0.34,VWS V14.00,2013-02-28 04:12:00,
2013-02-27 23:17:00,33.2,31.9,29.64,NNW,348,7.0,10.0,95,0.00,,---,0.34,VWS V14.00,2013-02-28 04:17:00,
2013-02-27 23:22:00,33.3,32.0,29.64,NNW,348,2.0,10.0,95,0.00,,---,0.34,VWS V14.00,2013-02-28 04:22:00,
2013-02-27 23:27:00,33.2,31.9,29.64,North,5,5.0,10.0,95,0.00,,---,0.34,VWS V14.00,2013-02-28 04:27:00,
2013-02-27 23:30:00,33.2,31.9,29.64,North,360,5.0,10.0,95,0.00,,---,0.34,VWS V14.00,2013-02-28 04:30:00,
2013-02-27 23:32:00,33.2,31.9,29.64,NNW,340,2.0,7.0,95,0.00,,---,0.34,VWS V14.00,2013-02-28 04:32:00,
2013-02-27 23:37:00,33.2,31.9,29.64,North,360,2.0,9.0,95,0.00,,---,0.34,VWS V14.00,2013-02-28 04:37:00,
2013-02-27 23:42:00,33.2,31.9,29.64,NW,315,2.0,9.0,95,0.00,,---,0.34,VWS V14.00,2013-02-28 04:42:00,
2013-02-27 23:47:00,33.2,31.9,29.64,North,5,2.0,10.0,95,0.00,,---,0.34,VWS V14.00,2013-02-28 04:47:00,
2013-02-27 23:52:00,33.2,31.9,29.64,NNW,344,6.0,10.0,95,0.00,,---,0.34,VWS V14.00,2013-02-28 04:52:00,
2013-02-27 23:57:00,33.1,31.8,29.64,NNW,343,3.0,10.0,95,0.00,,---,0.34,VWS V14.00,2013-02-28 04:57:00,